Terminal Aerodrome Forecast
Issued by NWS

Home | Current Version | Previous Version | Text Only | Print | Product List | Glossary On
Versions: 1 2 3 4 5 6 7 8 9 10 11 12 13 14
000
FTUS45 KABQ 240400 AAB
TAFROW
TAF AMD
KROW 240408Z 2404/2424 24008KT P6SM SKC
     FM240700 31015KT P6SM SKC
     FM241400 35013KT P6SM SKC
     FM241700 01010KT P6SM SKC
     FM242000 08007KT P6SM SKC
     FM242300 15012G18KT P6SM SKC=

USA.gov is the U.S. government's official web portal to all federal, state and local government web resources and services.